TIANWANG 1A (TW-1A)
1 40928U 15051D   19286.04389465  .00002946  00000-0  72501-4 0  9990
2 40928  97.1372 314.7541 0011388  19.9263  33.6133 15.41332147227090
LAPAN A2
1 40931U 15052B   19284.50991012  .00000141  00000-0 -69845-4 0  9994
2 40931   6.0059 317.7712 0016039 338.4638  21.4786 14.76613481218269
LQSAT
1 40958U 15057A   19285.78487106 +.00000023 +00000-0 +11241-4 0  9998
2 40958 097.8878 351.7787 0017197 225.5965 134.3836 14.73091502215909
CHUBUSAT 2
1 41338U 16012B   19285.93203970  .00000303  00000-0  16816-4 0  9999
2 41338  31.0024 126.0284 0013788 175.4604 184.6158 15.00191331200388
CHUBUSAT 3
1 41339U 16012C   19285.95455287  .00000295  00000-0  16088-4 0  9993
2 41339  31.0096 123.8311 0013498 183.5199 176.5345 15.00363721200383
OUFTI-1
1 41458U 16025C   19285.80185935 +.00001293 +00000-0 +69652-4 0  9997
2 41458 098.1008 018.5505 0164903 327.0432 032.0596 15.06076129190044
E-STAR-2
1 41459U 16025D   19286.24523268  .00001216  00000-0  66319-4 0  9994
2 41459  98.1006  18.6101 0165889 327.1231  31.9763 15.05703218190081
AAUSAT 4
1 41460U 16025E   19286.13872269  .00001705  00000-0  88858-4 0  9997
2 41460  98.0963  20.0428 0156210 318.8841  40.0697 15.07680264190214
NUSAT 1
1 41557U 16033B   19286.13988588  .00001085  00000-0  43110-4 0  9998
2 41557  97.4151  12.9577 0012288 243.1410 116.8573 15.27433994187866
BEESAT 4
1 41619U 16040W   19286.11863484  .00001124  00000-0  50208-4 0  9990
2 41619  97.3556 346.1100 0010577 342.4897  17.5974 15.23361079171582
PRATHAM
1 41783U 16059A   19285.73133961  .00000052  00000-0  19246-4 0  9995
2 41783  98.0549 342.6741 0033946  21.3957 338.8655 14.63013314162518
ALSAT 1N
1 41789U 16059G   19286.09923986  .00000040  00000-0  16662-4 0  9991
2 41789  98.0577 345.2847 0028513   9.5384 350.6362 14.64266687162686
NAYIF 1
1 42017U 17008BX  19286.11698760  .00001279  00000-0  52860-4 0  9998
2 42017  97.3921 351.9566 0007805 113.8810 246.3247 15.25783125147676
MAX VALIER SAT
1 42778U 17036P   19285.82528770  .00000891  00000-0  41774-4 0  9994
2 42778  97.3421 340.8629 0012708 169.1195 191.0319 15.22177206127904
